Location: Peebles
(55.6412°N, 3.1714°W)
Time: 15:12:32
(UTC+01:00)

Envisat - Visible Passes

Search period start: 16 August 2022 00:00
Search period end: 26 August 2022 00:00
Orbit: 763 x 765 km, 98.2° (Epoch: 15 August)

Date Brightness Start Highest point End Pass type
(mag) Time Alt. Az. Time Alt. Az. Time Alt. Az.
16 Aug 5.2 04:49:17 10° NE 04:53:34 27° E 04:57:50 10° SSE visible
17 Aug 5.7 04:13:21 10° NE 04:16:08 14° E 04:18:52 10° ESE visible
19 Aug 5.4 04:37:41 10° NE 04:41:38 22° E 04:45:33 10° SE visible
20 Aug 5.9 04:02:16 10° ENE 04:04:06 12° E 04:05:56 10° ESE visible
21 Aug 4.8 05:02:25 10° NNE 05:07:02 33° E 05:11:36 10° SSE visible
22 Aug 5.6 04:26:09 10° NE 04:29:39 18° E 04:33:09 10° SE visible
24 Aug 5.1 04:50:45 10° NNE 04:55:06 28° E 04:59:25 10° SSE visible
25 Aug 5.7 04:14:44 10° NE 04:17:39 15° E 04:20:34 10° ESE visible
